When you browse on this site, cookies collect data to enhance your experience and personalize the content and advertising you see.
Visit our Privacy Policy to learn more. By continuing to use the site, you agree to this use of cookies and data.
  • In Romania
  • List of Countries
  • For 7 days
  • Water Temperature
  • Satellite Maps
  • Weather Map
  • Weather Widgets
  • user-avatar
    Login

    Hourly Weather Glewiec

    Today, 24 February, Sunday

    Time Temperature Precipitation Wind Pressure Humidity
    00:00 -2°C° 0 mm 1 mps 758 mmHg 44%
    01:00 -2°C° 0 mm 1 mps 758 mmHg 44%
    02:00 -2°C° 0 mm 1 mps 757 mmHg 43%
    03:00 -2°C° 0 mm 1 mps 757 mmHg 41%
    04:00 -2°C° 0 mm 1 mps 757 mmHg 40%
    05:00 -1°C° 0 mm 1 mps 756 mmHg 39%
    06:00 -1°C° 0 mm 1 mps 756 mmHg 37%
    07:00 -3°C° 0 mm 2 mps 756 mmHg 36%
    08:00 -2°C° 0 mm 2 mps 756 mmHg 33%
    09:00 -1°C° 0 mm 2 mps 756 mmHg 30%
    10:00 0°C° 0 mm 3 mps 756 mmHg 27%
    11:00 0°C° 0 mm 3 mps 755 mmHg 34%
    12:00 0°C° 0 mm 3 mps 755 mmHg 42%
    13:00 0°C° 0 mm 3 mps 755 mmHg 49%
    14:00 +1°C° 0 mm 3 mps 755 mmHg 52%
    15:00 +1°C° 0 mm 3 mps 754 mmHg 54%
    16:00 +1°C° 0 mm 3 mps 754 mmHg 57%
    17:00 0°C° 0 mm 3 mps 754 mmHg 57%
    18:00 -1°C° 0 mm 3 mps 754 mmHg 58%
    19:00 -1°C° 0 mm 3 mps 754 mmHg 58%
    20:00 -1°C° 0 mm 3 mps 754 mmHg 57%
    21:00 -1°C° 0 mm 3 mps 754 mmHg 55%
    22:00 -1°C° 0 mm 3 mps 754 mmHg 53%
    23:00 -1°C° 0 mm 3 mps 754 mmHg 53%

    Tomorrow, 25 February, Monday

    Time Temperature Precipitation Wind Pressure Humidity
    00:00 -1°C° 0 mm 3 mps 754 mmHg 52%
    01:00 -1°C° 0 mm 3 mps 754 mmHg 51%
    02:00 -2°C° 0 mm 4 mps 754 mmHg 51%
    03:00 -2°C° 0 mm 4 mps 754 mmHg 52%
    04:00 -2°C° 0 mm 4 mps 753 mmHg 53%
    05:00 -2°C° 0 mm 4 mps 753 mmHg 54%
    06:00 -2°C° 0 mm 4 mps 753 mmHg 56%
    07:00 -2°C° 0 mm 4 mps 753 mmHg 57%
    08:00 -1°C° 0 mm 4 mps 753 mmHg 55%
    09:00 +1°C° 0 mm 5 mps 753 mmHg 53%
    10:00 +2°C° 0 mm 5 mps 753 mmHg 51%
    11:00 +3°C° 0 mm 5 mps 753 mmHg 53%
    12:00 +5°C° 0 mm 5 mps 753 mmHg 55%
    13:00 +6°C° 0 mm 5 mps 753 mmHg 57%
    14:00 +5°C° 0 mm 5 mps 752 mmHg 61%
    15:00 +5°C° 0 mm 4 mps 752 mmHg 65%
    16:00 +5°C° 0 mm 4 mps 752 mmHg 68%
    17:00 +4°C° 0 mm 4 mps 752 mmHg 74%
    18:00 +1°C° 0 mm 4 mps 752 mmHg 79%
    19:00 0°C° 0 mm 4 mps 752 mmHg 85%
    20:00 0°C° 0 mm 4 mps 752 mmHg 87%
    21:00 +1°C° 0 mm 3 mps 752 mmHg 88%
    22:00 0°C° 0 mm 3 mps 752 mmHg 90%
    23:00 -1°C° 0 mm 4 mps 752 mmHg 91%

    Day after tomorrow, 26 February, Tuesday

    Time Temperature Precipitation Wind Pressure Humidity
    00:00 -1°C° 0 mm 4 mps 752 mmHg 91%
    01:00 -1°C° 0 mm 4 mps 751 mmHg 92%
    02:00 -1°C° 0 mm 4 mps 751 mmHg 92%
    03:00 -1°C° 0 mm 4 mps 751 mmHg 93%
    04:00 -1°C° 0 mm 4 mps 750 mmHg 94%
    05:00 -1°C° 0 mm 4 mps 750 mmHg 93%
    06:00 -1°C° 0 mm 5 mps 750 mmHg 93%
    07:00 0°C° 0 mm 5 mps 750 mmHg 92%
    08:00 0°C° 0 mm 5 mps 749 mmHg 91%
    09:00 +1°C° 0 mm 5 mps 749 mmHg 89%
    10:00 +2°C° 0 mm 5 mps 749 mmHg 88%
    11:00 +3°C° 0.1 mm 5 mps 749 mmHg 85%
    12:00 +3°C° 0.1 mm 6 mps 748 mmHg 82%
    13:00 +4°C° 0.1 mm 7 mps 748 mmHg 79%
    14:00 +4°C° 0.2 mm 7 mps 747 mmHg 78%
    15:00 +3°C° 0.2 mm 6 mps 747 mmHg 78%
    16:00 +3°C° 0.2 mm 6 mps 747 mmHg 77%
    17:00 +3°C° 0 mm 6 mps 748 mmHg 81%
    18:00 +2°C° 0 mm 5 mps 748 mmHg 85%
    19:00 +1°C° 0 mm 4 mps 748 mmHg 88%
    20:00 +1°C° 0 mm 4 mps 748 mmHg 89%
    21:00 0°C° 0 mm 4 mps 749 mmHg 90%
    22:00 +1°C° 0 mm 3 mps 749 mmHg 92%
    23:00 +1°C° 0 mm 3 mps 749 mmHg 92%

    27 February, Wednesday

    Time Temperature Precipitation Wind Pressure Humidity
    00:00 0°C° 0 mm 3 mps 749 mmHg 92%
    01:00 0°C° 0 mm 3 mps 749 mmHg 92%
    02:00 0°C° 0 mm 3 mps 749 mmHg 93%
    03:00 -1°C° 0 mm 3 mps 749 mmHg 93%
    04:00 -1°C° 0 mm 2 mps 749 mmHg 93%
    05:00 -1°C° 0 mm 2 mps 749 mmHg 93%
    06:00 -1°C° 0 mm 2 mps 749 mmHg 93%
    07:00 -1°C° 0 mm 2 mps 749 mmHg 92%
    08:00 +2°C° 0 mm 2 mps 749 mmHg 85%
    09:00 +2°C° 0 mm 3 mps 749 mmHg 77%
    10:00 +4°C° 0 mm 3 mps 749 mmHg 69%
    11:00 +5°C° 0 mm 3 mps 748 mmHg 65%
    12:00 +6°C° 0 mm 4 mps 748 mmHg 60%
    13:00 +7°C° 0 mm 4 mps 747 mmHg 56%
    14:00 +7°C° 0 mm 4 mps 747 mmHg 59%
    15:00 +7°C° 0 mm 4 mps 746 mmHg 63%
    16:00 +8°C° 0 mm 3 mps 746 mmHg 67%
    17:00 +7°C° 0 mm 3 mps 746 mmHg 72%
    18:00 +5°C° 0 mm 3 mps 746 mmHg 77%
    19:00 +4°C° 0 mm 3 mps 745 mmHg 82%
    20:00 +4°C° 0 mm 3 mps 745 mmHg 82%
    21:00 +4°C° 0 mm 3 mps 745 mmHg 81%
    22:00 +3°C° 0 mm 4 mps 745 mmHg 81%
    23:00 +3°C° 0 mm 4 mps 744 mmHg 80%

    28 February, Thursday

    Time Temperature Precipitation Wind Pressure Humidity
    00:00 +3°C° 0 mm 4 mps 744 mmHg 80%
    01:00 +3°C° 0 mm 4 mps 744 mmHg 80%
    02:00 +3°C° 0 mm 4 mps 743 mmHg 79%
    03:00 +3°C° 0 mm 4 mps 743 mmHg 78%
    04:00 +3°C° 0 mm 4 mps 742 mmHg 78%
    05:00 +3°C° 0 mm 4 mps 742 mmHg 76%
    06:00 +3°C° 0 mm 4 mps 741 mmHg 73%
    07:00 +3°C° 0 mm 4 mps 741 mmHg 71%
    08:00 +5°C° 0 mm 5 mps 741 mmHg 63%
    09:00 +7°C° 0 mm 5 mps 740 mmHg 54%
    10:00 +10°C° 0 mm 6 mps 740 mmHg 46%
    11:00 +11°C° 0 mm 7 mps 739 mmHg 44%
    12:00 +12°C° 0 mm 7 mps 739 mmHg 42%
    13:00 +12°C° 0 mm 8 mps 738 mmHg 40%
    14:00 +12°C° 0 mm 7 mps 738 mmHg 44%
    15:00 +12°C° 0 mm 7 mps 738 mmHg 49%
    16:00 +11°C° 0 mm 6 mps 738 mmHg 53%
    17:00 +10°C° 0 mm 6 mps 738 mmHg 60%
    18:00 +9°C° 0 mm 6 mps 738 mmHg 66%
    19:00 +8°C° 0 mm 5 mps 738 mmHg 73%
    20:00 +7°C° 0 mm 5 mps 739 mmHg 77%
    21:00 +7°C° 0 mm 4 mps 739 mmHg 81%
    22:00 +6°C° 0 mm 4 mps 739 mmHg 85%
    23:00 +6°C° 0 mm 4 mps 739 mmHg 83%

    1 March, Friday

    Time Temperature Precipitation Wind Pressure Humidity
    00:00 +6°C° 0 mm 4 mps 739 mmHg 82%
    01:00 +6°C° 0 mm 4 mps 739 mmHg 80%
    02:00 +5°C° 0 mm 4 mps 739 mmHg 78%
    03:00 +5°C° 0 mm 4 mps 740 mmHg 77%
    04:00 +5°C° 0 mm 4 mps 740 mmHg 75%
    05:00 +5°C° 0 mm 4 mps 740 mmHg 76%
    06:00 +4°C° 0 mm 4 mps 740 mmHg 76%
    07:00 +4°C° 0 mm 4 mps 740 mmHg 77%
    08:00 +3°C° 0 mm 5 mps 740 mmHg 74%
    09:00 +5°C° 0 mm 5 mps 741 mmHg 71%
    10:00 +5°C° 0 mm 5 mps 741 mmHg 68%
    11:00 +6°C° 0 mm 5 mps 741 mmHg 64%
    12:00 +6°C° 0 mm 5 mps 741 mmHg 60%
    13:00 +7°C° 0 mm 5 mps 741 mmHg 56%
    14:00 +7°C° 0 mm 5 mps 741 mmHg 56%
    15:00 +7°C° 0 mm 5 mps 741 mmHg 55%
    16:00 +6°C° 0 mm 5 mps 741 mmHg 55%
    17:00 +5°C° 0 mm 4 mps 741 mmHg 59%
    18:00 +5°C° 0 mm 3 mps 742 mmHg 63%
    19:00 +5°C° 0 mm 2 mps 742 mmHg 67%
    20:00 +4°C° 0 mm 2 mps 742 mmHg 70%
    21:00 +3°C° 0 mm 2 mps 743 mmHg 72%
    22:00 +3°C° 0 mm 2 mps 743 mmHg 74%
    23:00 +2°C° 0 mm 2 mps 743 mmHg 76%
    Show more